Moshoeshoe I International Airport

Jump to: basic info | weather | frequencies | runways | comments

Related pages: nearby airports | nearby navaids | notams | map

Basic information (top)

Codes: MSU FXMM
Location: lon -29.462299, lat 27.552500, elev 5,348 ft / 1,630 m msl
Status: medium_airport
Scheduled airline service: yes
Links: Wikipedia Mobile

Weather (top)

Current conditions (rec'd 2014/07/22 14:00Z):

FXMM 221400Z 29006KT CAVOK 17/M04 Q1027 NOSIG

Airport forecast (rec'd 2014/07/02 09:15Z):

TAF TAF FXMM 020900Z 0209/0312 34010KT 9999 SCT040 
     FM021800 03005KT //// FEW040 
      BECMG 0307/0309 32010KT FEW035

Frequencies (top)

Verify before use: may be inaccurate or out of date.

APP: 120.7 MHz (MASERU APP)
GND: 121.7 MHz (MASERU GND)
TWR: 118.5 MHz (MASERU TWR)

Runways (top)

04/22: 10,498 x 148 ft (3,200 x 45 m) — paved — lighted — threshold 04 displaced 656 ft (200 m)

11/29: 3,314 x 75 ft (1,010 x 23 m) — paved — lighted

Latest comments (top)

lost items from lugage: I flew home on January 7,2010 a ... [read]

More... (top)

See also NOTAMs and nearby airports and navaids, or visit the Moshoeshoe I International Airport page at the main OurAirports website..